When you browse on this site, cookies collect data to enhance your experience and personalize the content and advertising you see.
Visit our Privacy Policy to learn more. By continuing to use the site, you agree to this use of cookies and data.
  • en Suisse
  • Liste des pays
  • À 7 jours
  • Température de l'eau
  • Carte satellitaire
  • Carte météo
  • Widgets météo
  • user-avatar
    Se connecter

    Météo par heure à Kolyshkino

    Ce jour, 25 Juin, Mardi

    Heure Température Précipitation Vent Pression Humidité
    00:00 +14°C° 0 mm 3 m/s 751 mmHg 75%
    01:00 +14°C° 0 mm 3 m/s 751 mmHg 77%
    02:00 +14°C° 0 mm 2 m/s 751 mmHg 81%
    03:00 +14°C° 0 mm 2 m/s 752 mmHg 81%
    04:00 +15°C° 0 mm 2 m/s 752 mmHg 81%
    05:00 +15°C° 0 mm 2 m/s 752 mmHg 80%
    06:00 +16°C° 0 mm 2 m/s 752 mmHg 75%
    07:00 +18°C° 0 mm 2 m/s 753 mmHg 69%
    08:00 +19°C° 0 mm 3 m/s 753 mmHg 65%
    09:00 +20°C° 0 mm 3 m/s 753 mmHg 62%
    10:00 +21°C° 0 mm 3 m/s 753 mmHg 58%
    11:00 +22°C° 0 mm 3 m/s 753 mmHg 54%
    12:00 +22°C° 0 mm 3 m/s 753 mmHg 52%
    13:00 +24°C° 0 mm 3 m/s 753 mmHg 51%
    14:00 +24°C° 0 mm 3 m/s 753 mmHg 49%
    15:00 +23°C° 0 mm 2 m/s 753 mmHg 54%
    16:00 +23°C° 0 mm 2 m/s 753 mmHg 58%
    17:00 +23°C° 0 mm 2 m/s 752 mmHg 63%
    18:00 +20°C° 0 mm 2 m/s 753 mmHg 66%
    19:00 +19°C° 0 mm 1 m/s 753 mmHg 69%
    20:00 +16°C° 0 mm 1 m/s 753 mmHg 72%
    21:00 +16°C° 0 mm 1 m/s 753 mmHg 75%
    22:00 +15°C° 0 mm 1 m/s 753 mmHg 78%
    23:00 +14°C° 0 mm 1 m/s 752 mmHg 81%

    Demain, 26 Juin, Mercredi

    Heure Température Précipitation Vent Pression Humidité
    00:00 +13°C° 0 mm 1 m/s 753 mmHg 82%
    01:00 +12°C° 0 mm 0 m/s 753 mmHg 83%
    02:00 +11°C° 0 mm 0 m/s 753 mmHg 85%
    03:00 +12°C° 0 mm 0 m/s 753 mmHg 84%
    04:00 +14°C° 0 mm 1 m/s 753 mmHg 82%
    05:00 +15°C° 0 mm 1 m/s 752 mmHg 81%
    06:00 +18°C° 0 mm 1 m/s 752 mmHg 75%
    07:00 +19°C° 0 mm 1 m/s 752 mmHg 69%
    08:00 +20°C° 0 mm 2 m/s 752 mmHg 63%
    09:00 +21°C° 0 mm 2 m/s 752 mmHg 60%
    10:00 +23°C° 0 mm 2 m/s 751 mmHg 57%
    11:00 +24°C° 0 mm 3 m/s 751 mmHg 54%
    12:00 +24°C° 0 mm 3 m/s 751 mmHg 54%
    13:00 +24°C° 0 mm 3 m/s 750 mmHg 53%
    14:00 +24°C° 0 mm 3 m/s 750 mmHg 53%
    15:00 +24°C° 0 mm 3 m/s 749 mmHg 57%
    16:00 +24°C° 0 mm 2 m/s 749 mmHg 60%
    17:00 +24°C° 0 mm 1 m/s 748 mmHg 64%
    18:00 +22°C° 0 mm 1 m/s 748 mmHg 66%
    19:00 +21°C° 0 mm 1 m/s 747 mmHg 69%
    20:00 +20°C° 0 mm 1 m/s 747 mmHg 72%
    21:00 +19°C° 0 mm 1 m/s 746 mmHg 74%
    22:00 +18°C° 0 mm 2 m/s 745 mmHg 76%
    23:00 +17°C° 0 mm 2 m/s 745 mmHg 78%

    Après-demain, 27 Juin, Jeudi

    Heure Température Précipitation Vent Pression Humidité
    00:00 +17°C° 0.2 mm 3 m/s 744 mmHg 82%
    01:00 +16°C° 0.2 mm 3 m/s 743 mmHg 86%
    02:00 +16°C° 0.2 mm 3 m/s 742 mmHg 90%
    03:00 +15°C° 4.1 mm 4 m/s 741 mmHg 92%
    04:00 +15°C° 4.1 mm 4 m/s 740 mmHg 95%
    05:00 +15°C° 4.1 mm 5 m/s 739 mmHg 97%
    06:00 +16°C° 1.2 mm 5 m/s 739 mmHg 95%
    07:00 +17°C° 1.2 mm 5 m/s 738 mmHg 94%
    08:00 +19°C° 1.2 mm 5 m/s 737 mmHg 93%
    09:00 +19°C° 0.4 mm 5 m/s 736 mmHg 94%
    10:00 +20°C° 0.4 mm 4 m/s 736 mmHg 94%
    11:00 +20°C° 0.4 mm 4 m/s 735 mmHg 95%
    12:00 +20°C° 0.9 mm 5 m/s 734 mmHg 95%
    13:00 +20°C° 0.9 mm 5 m/s 734 mmHg 94%
    14:00 +20°C° 0.9 mm 6 m/s 733 mmHg 94%
    15:00 +21°C° 0.6 mm 6 m/s 733 mmHg 93%
    16:00 +21°C° 0.6 mm 6 m/s 732 mmHg 92%
    17:00 +21°C° 0.6 mm 6 m/s 731 mmHg 91%
    18:00 +21°C° 2 mm 5 m/s 730 mmHg 91%
    19:00 +20°C° 2 mm 4 m/s 730 mmHg 91%
    20:00 +19°C° 2 mm 3 m/s 729 mmHg 92%
    21:00 +19°C° 0.4 mm 4 m/s 729 mmHg 93%
    22:00 +17°C° 0.4 mm 5 m/s 728 mmHg 95%
    23:00 +16°C° 0.4 mm 5 m/s 728 mmHg 96%

    28 Juin, Vendredi

    Heure Température Précipitation Vent Pression Humidité
    00:00 +16°C° 0.1 mm 6 m/s 728 mmHg 96%
    01:00 +15°C° 0.1 mm 6 m/s 728 mmHg 95%
    02:00 +15°C° 0.1 mm 6 m/s 727 mmHg 94%
    03:00 +14°C° 0 mm 6 m/s 727 mmHg 93%
    04:00 +14°C° 0 mm 6 m/s 727 mmHg 91%
    05:00 +14°C° 0 mm 5 m/s 727 mmHg 90%
    06:00 +14°C° 0 mm 5 m/s 727 mmHg 89%
    07:00 +14°C° 0 mm 5 m/s 726 mmHg 89%
    08:00 +14°C° 0 mm 6 m/s 726 mmHg 88%
    09:00 +14°C° 0.1 mm 6 m/s 726 mmHg 88%
    10:00 +14°C° 0.1 mm 6 m/s 726 mmHg 89%
    11:00 +14°C° 0.1 mm 6 m/s 726 mmHg 89%
    12:00 +14°C° 0.3 mm 5 m/s 726 mmHg 91%
    13:00 +14°C° 0.3 mm 5 m/s 726 mmHg 92%
    14:00 +13°C° 0.3 mm 5 m/s 726 mmHg 93%
    15:00 +13°C° 0.1 mm 5 m/s 726 mmHg 94%
    16:00 +13°C° 0.1 mm 5 m/s 726 mmHg 94%
    17:00 +12°C° 0.1 mm 5 m/s 726 mmHg 95%
    18:00 +12°C° 0.4 mm 5 m/s 726 mmHg 95%
    19:00 +10°C° 0.4 mm 5 m/s 727 mmHg 95%
    20:00 +10°C° 0.4 mm 6 m/s 727 mmHg 96%
    21:00 +10°C° 0.5 mm 6 m/s 727 mmHg 96%
    22:00 +10°C° 0.5 mm 6 m/s 727 mmHg 95%
    23:00 +10°C° 0.5 mm 6 m/s 727 mmHg 95%

    29 Juin, Samedi

    Heure Température Précipitation Vent Pression Humidité
    00:00 +10°C° 0.4 mm 6 m/s 727 mmHg 95%
    01:00 +10°C° 0.4 mm 6 m/s 728 mmHg 95%
    02:00 +10°C° 0.4 mm 6 m/s 728 mmHg 95%
    03:00 +10°C° 0.8 mm 6 m/s 728 mmHg 95%
    04:00 +10°C° 0.8 mm 7 m/s 729 mmHg 95%
    05:00 +10°C° 0.8 mm 7 m/s 729 mmHg 95%
    06:00 +9°C° 0.2 mm 7 m/s 729 mmHg 95%
    07:00 +9°C° 0.2 mm 7 m/s 730 mmHg 94%
    08:00 +9°C° 0.2 mm 7 m/s 731 mmHg 94%
    09:00 +9°C° 0.1 mm 7 m/s 731 mmHg 93%
    10:00 +9°C° 0.1 mm 7 m/s 732 mmHg 92%
    11:00 +9°C° 0.1 mm 7 m/s 733 mmHg 91%
    12:00 +10°C° 0.1 mm 6 m/s 733 mmHg 87%
    13:00 +10°C° 0.1 mm 5 m/s 734 mmHg 83%
    14:00 +12°C° 0.1 mm 5 m/s 734 mmHg 79%
    15:00 +12°C° 0 mm 5 m/s 734 mmHg 76%
    16:00 +12°C° 0 mm 5 m/s 735 mmHg 74%
    17:00 +13°C° 0 mm 5 m/s 735 mmHg 71%
    18:00 +12°C° 0 mm 4 m/s 735 mmHg 72%
    19:00 +12°C° 0 mm 4 m/s 736 mmHg 72%
    20:00 +11°C° 0 mm 3 m/s 736 mmHg 73%
    21:00 +11°C° 0 mm 3 m/s 736 mmHg 74%
    22:00 +10°C° 0 mm 3 m/s 737 mmHg 74%
    23:00 +10°C° 0 mm 2 m/s 737 mmHg 75%

    30 Juin, Dimanche

    Heure Température Précipitation Vent Pression Humidité
    00:00 +9°C° 0 mm 2 m/s 737 mmHg 76%
    01:00 +9°C° 0 mm 2 m/s 737 mmHg 78%
    02:00 +8°C° 0 mm 2 m/s 737 mmHg 80%
    03:00 +8°C° 0 mm 3 m/s 738 mmHg 80%
    04:00 +8°C° 0 mm 3 m/s 738 mmHg 80%
    05:00 +8°C° 0 mm 3 m/s 738 mmHg 80%
    06:00 +10°C° 0 mm 3 m/s 738 mmHg 75%
    07:00 +12°C° 0 mm 3 m/s 738 mmHg 70%
    08:00 +14°C° 0 mm 3 m/s 738 mmHg 65%
    09:00 +15°C° 0 mm 4 m/s 738 mmHg 61%
    10:00 +17°C° 0 mm 4 m/s 739 mmHg 56%
    11:00 +18°C° 0 mm 4 m/s 739 mmHg 51%
    12:00 +19°C° 0 mm 4 m/s 739 mmHg 51%
    13:00 +19°C° 0 mm 3 m/s 739 mmHg 50%
    14:00 +19°C° 0 mm 3 m/s 739 mmHg 50%
    15:00 +19°C° 0 mm 3 m/s 739 mmHg 53%
    16:00 +19°C° 0 mm 2 m/s 739 mmHg 55%
    17:00 +19°C° 0 mm 2 m/s 739 mmHg 58%
    18:00 +17°C° 0.1 mm 2 m/s 739 mmHg 68%
    19:00 +15°C° 0.1 mm 2 m/s 739 mmHg 78%
    20:00 +13°C° 0.1 mm 2 m/s 740 mmHg 88%
    21:00 +13°C° 0 mm 2 m/s 740 mmHg 90%
    22:00 +12°C° 0 mm 2 m/s 740 mmHg 92%
    23:00 +12°C° 0 mm 2 m/s 740 mmHg 94%
    Voir plus